ProjectID,Date,Electric Generation,Electric Utility Import,Facility Electric Load
,YYYY-MM-DD,kW,kW,kW
141,2013-10-01,-2.2516666666666665,0.0,-2.2516666666666665
141,2013-10-02,14.114583333333334,320.0697083333333,334.18429166666664
141,2013-10-03,18.513333333333332,441.390875,459.9042083333333
141,2013-10-04,46.701208333333334,444.179375,490.88058333333333
141,2013-10-05,38.46333333333333,436.272,474.7353333333333
141,2013-10-06,36.08875,437.73600000000005,473.82475000000005
141,2013-10-07,41.27791666666666,439.63575,480.91366666666664
141,2013-10-08,28.632125000000002,355.19545833333336,383.82758333333334
141,2013-10-09,31.776708333333332,320.26870833333334,352.04541666666665
141,2013-10-10,41.236291666666666,311.83070833333335,353.067
141,2013-10-11,61.00375,307.2679583333333,368.2717083333333
141,2013-10-12,48.91129166666667,284.618625,333.5299166666667
141,2013-10-13,-3.455,329.43695833333334,325.98195833333335
141,2013-10-14,67.86083333333333,295.935625,363.79645833333336
141,2013-10-15,76.811125,292.6730416666667,369.4841666666667
141,2013-10-16,76.39208333333333,295.58008333333333,371.9721666666667
141,2013-10-17,52.77133333333333,317.93325,370.7045833333333
141,2013-10-18,52.646625,300.508125,353.15475000000004
141,2013-10-19,26.72083333333333,317.85766666666666,344.57849999999996
141,2013-10-20,28.45075,320.52091666666666,348.9716666666667
141,2013-10-21,24.575416666666666,327.4782916666667,352.05370833333336
141,2013-10-22,11.186666666666667,329.76050000000004,340.9471666666667
141,2013-10-23,19.974166666666665,321.44604166666664,341.42020833333333
141,2013-10-24,24.832125,307.292625,332.12475
141,2013-10-25,13.772916666666667,303.614375,317.38729166666667
141,2013-10-26,-3.4499999999999997,306.2712916666667,302.8212916666667
141,2013-10-27,-3.4479166666666665,319.8272083333333,316.37929166666663
141,2013-10-28,-2.557916666666667,173.01458333333335,170.45666666666668
141,2013-10-29,-1.6729166666666666,0.0,-1.6729166666666666
141,2013-10-30,-1.6745833333333333,212.10804166666665,210.4334583333333
141,2013-10-31,24.040875,314.80216666666666,338.84304166666664
141,2013-11-01,50.41616666666667,305.38937500000003,355.8055416666667
141,2013-11-02,56.63004166666667,274.28325,330.9132916666667
141,2013-11-03,59.30616666666666,270.9700833333333,330.27625
141,2013-11-04,70.54725,253.46891666666667,324.01616666666666
141,2013-11-05,57.16445833333333,266.3224166666667,323.48687500000005
141,2013-11-06,21.052916666666665,300.1492083333333,321.20212499999997
141,2013-11-07,26.310875,304.6120833333333,330.9229583333333
141,2013-11-08,35.33016666666666,281.1530833333333,316.48325
141,2013-11-09,39.88420833333333,258.83733333333333,298.72154166666667
141,2013-11-10,46.61237499999999,275.11925,321.731625
141,2013-11-11,46.367625000000004,272.04754166666663,318.41516666666666
141,2013-11-12,41.47166666666667,291.45520833333336,332.92687500000005
141,2013-11-13,54.04266666666666,296.33795833333335,350.380625
141,2013-11-14,54.978833333333334,283.66858333333334,338.6474166666667
141,2013-11-15,45.690583333333336,278.6874583333333,324.37804166666666
141,2013-11-16,19.965791666666664,281.0495833333333,301.015375
141,2013-11-17,52.087916666666665,262.67325,314.76116666666667
141,2013-11-18,53.561749999999996,276.20970833333337,329.7714583333334
141,2013-11-19,49.69570833333333,283.8712083333333,333.56691666666666
141,2013-11-20,84.82758333333334,274.00329166666666,358.830875
141,2013-11-21,94.60483333333333,269.94866666666667,364.5535
141,2013-11-22,93.70391666666666,264.72587500000003,358.4297916666667
141,2013-11-23,98.67741666666666,254.65175,353.32916666666665
141,2013-11-24,101.13175,302.27866666666665,403.41041666666666
141,2013-11-25,44.578375,348.71362500000004,393.29200000000003
141,2013-11-26,75.348375,318.912125,394.2605
141,2013-11-27,106.34279166666666,271.642625,377.98541666666665
141,2013-11-28,103.58920833333333,242.97858333333332,346.56779166666666
141,2013-11-29,107.625375,244.714875,352.34025
141,2013-11-30,97.38879166666668,257.0045833333333,354.393375
141,2013-12-01,95.00450000000001,272.43620833333335,367.44070833333336
141,2013-12-02,112.70079166666666,267.45779166666665,380.1585833333333
141,2013-12-03,74.44991666666667,273.0072083333333,347.457125
141,2013-12-04,64.47416666666668,295.50845833333335,359.98262500000004
141,2013-12-05,99.297625,266.89979166666666,366.19741666666664
141,2013-12-06,98.10870833333333,261.2038333333333,359.3125416666666
141,2013-12-07,99.06491666666666,263.19604166666664,362.2609583333333
141,2013-12-08,106.05254166666667,296.475375,402.52791666666667
141,2013-12-09,93.86041666666667,313.6432916666667,407.50370833333335
141,2013-12-10,108.455,316.15500000000003,424.61
141,2013-12-11,82.11200000000001,307.73325,389.84525
141,2013-12-12,65.68533333333333,376.419375,442.10470833333335
141,2013-12-13,38.777125,360.81,399.587125
141,2013-12-14,-3.451083333333333,402.33212499999996,398.88104166666665
141,2013-12-15,-3.453666666666667,386.8712083333333,383.41754166666664
141,2013-12-16,40.19779166666667,360.20845833333334,400.40625
141,2013-12-17,103.79050000000001,324.5339583333333,428.3244583333333
141,2013-12-18,98.02716666666667,316.96625,414.9934166666667
141,2013-12-19,5.138333333333333,351.95979166666666,357.098125
141,2013-12-20,-4.80725,345.61470833333334,340.80745833333333
141,2013-12-21,57.153124999999996,265.556125,322.70925
141,2013-12-22,70.53591666666667,273.534,344.06991666666664
141,2013-12-23,75.912875,273.62258333333335,349.53545833333334
141,2013-12-24,87.69633333333333,240.37125,328.06758333333335
141,2013-12-25,97.37520833333333,240.1927916666667,337.56800000000004
141,2013-12-26,67.32358333333333,263.49225,330.81583333333333
141,2013-12-27,55.317125000000004,268.42333333333335,323.7404583333333
141,2013-12-28,64.21954166666667,239.83608333333333,304.055625
141,2013-12-29,55.03458333333333,263.81266666666664,318.84725
141,2013-12-30,75.17725,264.0144583333333,339.19170833333334
141,2013-12-31,85.32125,267.4818333333333,352.80308333333335
141,2014-01-01,27.913749999999997,315.914125,343.827875
141,2014-01-02,17.015166666666666,354.69025000000005,371.70541666666674
141,2014-01-03,49.20883333333333,365.51304166666665,414.72187499999995
141,2014-01-04,4.236958333333333,400.2370833333334,404.4740416666667
141,2014-01-05,-3.4793333333333334,397.96108333333336,394.48175000000003
141,2014-01-06,41.733375,346.949375,388.68275
141,2014-01-07,56.426125000000006,402.4285,458.854625
141,2014-01-08,78.65854166666666,382.9870833333334,461.64562500000005
141,2014-01-09,60.770916666666665,364.60041666666666,425.3713333333333
141,2014-01-10,115.38704166666668,297.67720833333334,413.06425
141,2014-01-11,92.635375,280.98583333333335,373.62120833333336
141,2014-01-12,102.63579166666666,250.82429166666668,353.46008333333333
141,2014-01-13,102.496125,252.17729166666666,354.67341666666664
141,2014-01-14,62.007583333333336,275.12895833333334,337.1365416666667
141,2014-01-15,56.68775,256.82041666666663,313.5081666666666
141,2014-01-16,56.59604166666667,262.0430416666667,318.63908333333336
141,2014-01-17,95.643125,241.01312499999997,336.65625
141,2014-01-18,127.16070833333333,214.42979166666666,341.5905
141,2014-01-19,126.553,228.91675,355.46975
141,2014-01-20,127.07979166666667,246.77745833333333,373.85725
141,2014-01-21,126.66108333333334,301.043125,427.7042083333333
141,2014-01-22,126.95608333333332,323.4975416666667,450.453625
141,2014-01-23,68.590125,362.5470833333333,431.1372083333333
141,2014-01-24,60.79420833333333,382.4975833333333,443.29179166666665
141,2014-01-25,60.97466666666667,369.8985416666667,430.87320833333337
141,2014-01-26,60.903416666666665,370.7839583333334,431.68737500000003
141,2014-01-27,30.558083333333332,366.71108333333336,397.2691666666667
141,2014-01-28,36.803125,399.386875,436.19
141,2014-01-29,62.15954166666666,371.36854166666666,433.5280833333333
141,2014-01-30,62.13820833333333,366.6707083333333,428.8089166666667
141,2014-01-31,62.261291666666665,325.9610833333333,388.22237499999994
141,2014-02-01,62.10758333333334,281.39074999999997,343.49833333333333
141,2014-02-02,61.925958333333334,273.46883333333335,335.39479166666666
141,2014-02-03,62.127208333333336,306.23579166666667,368.363
141,2014-02-04,52.238166666666665,301.5965,353.83466666666664
141,2014-02-05,61.967958333333335,303.28775,365.25570833333336
141,2014-02-06,30.707416666666663,313.41683333333333,344.12425
141,2014-02-07,51.14779166666667,301.54183333333333,352.689625
141,2014-02-08,110.76316666666666,266.92333333333335,377.6865
141,2014-02-09,110.84158333333333,280.6315416666667,391.47312500000004
141,2014-02-10,115.69266666666665,284.32304166666665,400.0157083333333
141,2014-02-11,126.33604166666667,277.65641666666664,403.99245833333333
141,2014-02-12,126.288,293.0027083333333,419.2907083333333
141,2014-02-13,126.45720833333333,287.46774999999997,413.9249583333333
141,2014-02-14,105.79091666666666,268.5575416666667,374.3484583333333
141,2014-02-15,61.13804166666667,264.61745833333333,325.7555
141,2014-02-16,46.33633333333333,266.440375,312.7767083333333
141,2014-02-17,101.88258333333333,261.617375,363.4999583333333
141,2014-02-18,126.991,256.0575833333333,383.0485833333333
141,2014-02-19,126.458125,240.64087500000002,367.09900000000005
141,2014-02-20,126.44004166666667,222.14341666666667,348.58345833333334
141,2014-02-21,78.81658333333333,262.5445,341.36108333333334
141,2014-02-22,96.202875,222.17208333333335,318.3749583333333
141,2014-02-23,125.28925,198.73462500000002,324.02387500000003
141,2014-02-24,107.19404166666668,230.857,338.05104166666666
141,2014-02-25,108.59579166666667,246.023625,354.61941666666667
141,2014-02-26,126.33704166666666,252.30483333333333,378.641875
141,2014-02-27,126.46604166666667,257.36995833333333,383.836
141,2014-02-28,126.43929166666668,281.752875,408.1921666666667
141,2014-03-01,126.15779166666665,253.29704166666667,379.45483333333334
141,2014-03-02,126.13054166666666,268.02375,394.15429166666667
141,2014-03-03,124.10975,272.6513333333333,396.7610833333333
141,2014-03-04,126.32324999999999,277.114875,403.43812499999996
141,2014-03-05,98.70916666666666,272.53933333333333,371.2485
141,2014-03-06,87.17725,285.122625,372.29987500000004
141,2014-03-07,106.10670833333334,262.20858333333337,368.3152916666667
141,2014-03-08,52.43241666666666,257.3387916666667,309.77120833333333
141,2014-03-09,100.85679166666667,240.90912500000002,341.76591666666667
141,2014-03-10,48.576166666666666,281.81275,330.38891666666666
141,2014-03-11,58.35483333333334,254.77620833333333,313.13104166666665
141,2014-03-12,56.076375000000006,256.97158333333334,313.0479583333333
141,2014-03-13,116.49495833333333,232.54195833333333,349.0369166666667
141,2014-03-14,126.19737500000001,231.82058333333336,358.01795833333335
141,2014-03-15,63.751666666666665,247.49754166666665,311.2492083333333
141,2014-03-16,122.50325,219.95866666666666,342.46191666666664
141,2014-03-17,125.43166666666667,230.86995833333333,356.301625
141,2014-03-18,126.00733333333334,218.8205,344.82783333333333
141,2014-03-19,123.15712500000001,216.59658333333334,339.75370833333335
141,2014-03-20,78.85674999999999,231.70079166666667,310.5575416666667
141,2014-03-21,79.43316666666666,237.896,317.32916666666665
141,2014-03-22,56.14604166666667,228.08875,284.2347916666667
141,2014-03-23,105.75208333333335,215.77366666666668,321.52575
141,2014-03-24,90.13099999999999,247.50029166666664,337.63129166666664
141,2014-03-25,91.236625,255.47933333333333,346.71595833333333
141,2014-03-26,124.92504166666667,224.67999999999998,349.60504166666664
141,2014-03-27,125.81295833333333,231.86745833333336,357.6804166666667
141,2014-03-28,85.26216666666666,255.47687499999998,340.73904166666665
141,2014-03-29,62.858000000000004,242.89870833333336,305.75670833333334
141,2014-03-30,72.25554166666667,241.72420833333334,313.97975
141,2014-03-31,94.24475,238.65916666666666,332.90391666666665
141,2014-04-01,75.95758333333333,262.6512916666667,338.608875
141,2014-04-02,93.77966666666667,242.06266666666667,335.84233333333333
141,2014-04-03,86.50433333333332,230.43770833333335,316.9420416666667
141,2014-04-04,54.293083333333335,261.11991666666665,315.413
141,2014-04-05,106.41224999999999,207.42733333333334,313.83958333333334
141,2014-04-06,125.81270833333333,202.479375,328.2920833333333
141,2014-04-07,118.35183333333333,220.79445833333332,339.1462916666667
141,2014-04-08,111.99125,216.89341666666667,328.88466666666665
141,2014-04-09,125.44016666666666,203.10441666666668,328.5445833333333
141,2014-04-10,125.57920833333333,188.52374999999998,314.1029583333333
141,2014-04-11,125.53500000000001,196.85179166666668,322.3867916666667
141,2014-04-12,97.71445833333333,197.06016666666667,294.774625
141,2014-04-13,49.57425,239.58620833333336,289.16045833333334
141,2014-04-14,91.44516666666668,250.13041666666666,341.5755833333333
141,2014-04-15,123.76570833333334,223.76325,347.5289583333333
141,2014-04-16,125.02162499999999,201.82316666666668,326.84479166666665
141,2014-04-17,125.91812499999999,190.88829166666667,316.8064166666667
141,2014-04-18,94.85170833333332,204.47420833333334,299.32591666666667
141,2014-04-19,102.84216666666667,188.10183333333336,290.944
141,2014-04-20,125.51341666666667,182.46129166666665,307.9747083333333
141,2014-04-21,124.77829166666668,192.53416666666666,317.3124583333333
141,2014-04-22,125.31529166666667,210.67216666666664,335.9874583333333
141,2014-04-23,125.09983333333334,200.77620833333333,325.87604166666665
141,2014-04-24,71.22595833333334,246.38041666666666,317.606375
141,2014-04-25,61.650666666666666,253.61483333333334,315.2655
141,2014-04-26,61.357708333333335,253.64095833333332,314.9986666666666
141,2014-04-27,61.68279166666667,264.258125,325.9409166666667
141,2014-04-28,60.945750000000004,266.581,327.52675
141,2014-04-29,61.425375,269.7138333333333,331.1392083333333
141,2014-04-30,61.58541666666667,277.95858333333337,339.54400000000004
141,2014-05-01,60.93812500000001,275.38308333333333,336.32120833333335
141,2014-05-02,61.58233333333334,279.31275,340.89508333333333
141,2014-05-03,61.46545833333334,266.18775,327.65320833333334
141,2014-05-04,61.55083333333334,268.6852083333333,330.23604166666667
141,2014-05-05,60.92570833333334,274.51845833333334,335.44416666666666
141,2014-05-06,61.44104166666667,276.54716666666667,337.9882083333333
141,2014-05-07,61.521166666666666,269.73729166666664,331.2584583333333
141,2014-05-08,76.62241666666667,262.23991666666666,338.8623333333333
141,2014-05-09,124.25020833333333,220.42995833333336,344.6801666666667
141,2014-05-10,125.24016666666667,236.2215,361.46166666666664
141,2014-05-11,124.50391666666667,236.294625,360.79854166666667
141,2014-05-12,92.01054166666667,294.3908333333333,386.401375
141,2014-05-13,81.66416666666667,289.8231666666667,371.48733333333337
141,2014-05-14,124.73533333333334,253.607,378.34233333333333
141,2014-05-15,122.73733333333332,271.028875,393.76620833333334
141,2014-05-16,124.732625,276.98720833333334,401.7198333333333
141,2014-05-17,124.89616666666666,222.19037500000002,347.0865416666667
141,2014-05-18,124.11625,205.55237499999998,329.66862499999996
141,2014-05-19,113.94108333333332,244.64091666666664,358.582
141,2014-05-20,49.837875,289.9272916666667,339.7651666666667
141,2014-05-21,60.19266666666667,289.26579166666664,349.4584583333333
141,2014-05-22,95.392875,263.35966666666667,358.7525416666667
141,2014-05-23,76.8595,287.67725,364.53675
141,2014-05-24,57.3645,273.667,331.0315
141,2014-05-25,57.34716666666667,283.62783333333334,340.975
141,2014-05-26,57.236041666666665,345.969,403.20504166666666
141,2014-05-27,94.75708333333334,397.52116666666666,492.27825
141,2014-05-28,121.61154166666667,290.73470833333334,412.34625
141,2014-05-29,121.57754166666666,247.14870833333336,368.72625000000005
141,2014-05-30,121.13116666666667,254.47687499999998,375.6080416666666
141,2014-05-31,120.56170833333334,238.37004166666668,358.93175
141,2014-06-01,120.29570833333334,237.52112499999998,357.8168333333333
141,2014-06-02,120.01470833333333,289.078375,409.0930833333333
141,2014-06-03,119.122,373.8856666666666,493.00766666666664
141,2014-06-04,120.25450000000001,396.90912499999996,517.1636249999999
141,2014-06-05,121.01670833333333,353.01591666666667,474.032625
141,2014-06-06,120.79158333333334,306.114875,426.9064583333333
141,2014-06-07,120.71733333333333,314.68775,435.4050833333333
141,2014-06-08,119.89854166666667,346.4950833333333,466.393625
141,2014-06-09,120.43470833333333,335.8908333333333,456.32554166666665
141,2014-06-10,120.33370833333333,398.19812499999995,518.5318333333332
141,2014-06-11,119.95133333333332,356.32841666666667,476.27975
141,2014-06-12,119.46825,356.83874999999995,476.30699999999996
141,2014-06-13,117.564375,383.8908333333333,501.4552083333333
141,2014-06-14,118.835375,318.10433333333333,436.93970833333333
141,2014-06-15,118.83458333333334,304.92995833333333,423.7645416666667
141,2014-06-16,118.85195833333334,345.2554583333333,464.10741666666667
141,2014-06-17,118.54924999999999,416.91954166666665,535.4687916666667
141,2014-06-18,119.64437500000001,459.99245833333333,579.6368333333334
141,2014-06-19,120.283125,431.78675,552.069875
141,2014-06-20,120.57575000000001,358.92216666666667,479.4979166666667
141,2014-06-21,120.30408333333332,318.7529583333333,439.05704166666663
141,2014-06-22,120.517,326.297125,446.814125
141,2014-06-23,120.74429166666665,354.76062499999995,475.5049166666666
141,2014-06-24,120.81929166666667,363.53925,484.35854166666667
141,2014-06-25,120.40125,427.78154166666667,548.1827916666666
141,2014-06-26,120.32962500000001,449.0027916666666,569.3324166666666
141,2014-06-27,120.402625,369.35966666666667,489.76229166666667
141,2014-06-28,120.51445833333334,326.3805,446.8949583333333
141,2014-06-29,120.32741666666668,333.469,453.7964166666667
141,2014-06-30,120.57575000000001,391.3700416666666,511.94579166666665
141,2014-07-01,117.16466666666668,452.896,570.0606666666667
141,2014-07-02,120.55758333333334,461.67474999999996,582.2323333333333
141,2014-07-03,120.16716666666667,441.31012499999997,561.4772916666666
141,2014-07-04,120.42766666666667,332.9741666666667,453.40183333333334
141,2014-07-05,120.080125,288.5419166666667,408.6220416666667
141,2014-07-06,120.05399999999999,336.80495833333333,456.8589583333333
141,2014-07-07,119.95408333333334,455.69037499999996,575.6444583333333
141,2014-07-08,120.22825,483.46391666666665,603.6921666666667
141,2014-07-09,120.20545833333334,469.349125,589.5545833333333
141,2014-07-10,120.282,435.6822916666667,555.9642916666667
141,2014-07-11,120.18875000000001,401.9791666666667,522.1679166666667
141,2014-07-12,119.96320833333334,383.703125,503.66633333333334
141,2014-07-13,119.19879166666668,432.7708333333333,551.969625
141,2014-07-14,119.483625,486.4479166666667,605.9315416666667
141,2014-07-15,85.49000000000001,494.0677083333333,579.5577083333333
141,2014-07-16,74.85229166666666,424.1197916666667,498.97208333333333
141,2014-07-17,110.00104166666667,387.4166666666667,497.41770833333334
141,2014-07-18,109.97633333333333,369.640625,479.61695833333334
141,2014-07-19,110.113,325.65625,435.76925
141,2014-07-20,109.76629166666667,353.2135416666667,462.9798333333334
141,2014-07-21,109.88429166666667,408.0989583333333,517.98325
141,2014-07-22,109.89570833333333,431.5989583333333,541.4946666666666
141,2014-07-23,110.031,450.84375,560.87475
141,2014-07-24,110.196625,408.9375,519.134125
141,2014-07-25,109.99445833333334,370.3177083333333,480.31216666666666
141,2014-07-26,109.97383333333333,341.484375,451.45820833333335
141,2014-07-27,109.6835,391.7864583333333,501.4699583333333
141,2014-07-28,110.02429166666667,403.3385416666667,513.3628333333334
141,2014-07-29,110.18483333333334,351.890625,462.07545833333336
141,2014-07-30,110.36566666666666,349.8229166666667,460.1885833333333
141,2014-07-31,110.13416666666666,371.4479166666667,481.58208333333334
141,2014-08-01,109.98604166666667,375.7916666666667,485.77770833333335
141,2014-08-02,110.05154166666667,318.2760416666667,428.32758333333334
141,2014-08-03,109.85341666666666,326.859375,436.71279166666665
141,2014-08-04,109.885875,396.0260416666667,505.9119166666667
141,2014-08-05,107.88966666666666,404.4166666666667,512.3063333333333
141,2014-08-06,110.013625,385.5729166666667,495.5865416666667
141,2014-08-07,110.274625,359.0833333333333,469.35795833333333
141,2014-08-08,110.48025,325.3229166666667,435.8031666666667
141,2014-08-09,110.16470833333334,302.1927083333333,412.35741666666667
141,2014-08-10,109.91120833333333,338.0677083333333,447.97891666666663
141,2014-08-11,110.06875000000001,379.953125,490.021875
141,2014-08-12,109.92395833333335,384.5,494.42395833333336
141,2014-08-13,109.84204166666666,382.1927083333333,492.03475
141,2014-08-14,110.141125,351.7760416666667,461.9171666666667
141,2014-08-15,110.25358333333332,314.4166666666667,424.67025
141,2014-08-16,76.469125,302.0677083333333,378.53683333333333
141,2014-08-17,100.30679166666665,322.3072916666667,422.6140833333333
141,2014-08-18,110.24012499999999,329.4375,439.677625
141,2014-08-19,110.09241666666667,349.5625,459.6549166666667
141,2014-08-20,110.24533333333333,361.3802083333333,471.62554166666666
141,2014-08-21,110.20541666666666,357.765625,467.9710416666667
141,2014-08-22,110.13604166666666,329.875,440.01104166666664
141,2014-08-23,110.401875,286.7708333333333,397.17270833333333
141,2014-08-24,110.49458333333332,303.390625,413.8852083333333
141,2014-08-25,110.26816666666667,343.515625,453.7837916666667
141,2014-08-26,109.902875,382.8177083333333,492.7205833333333
141,2014-08-27,108.47108333333334,395.0520833333333,503.52316666666667
141,2014-08-28,110.04966666666667,363.4322916666667,473.48195833333335
141,2014-08-29,109.66075000000001,310.5104166666667,420.1711666666667
141,2014-08-30,109.64987500000001,297.234375,406.88425
141,2014-08-31,109.70366666666666,351.0885416666667,460.79220833333335
141,2014-09-01,109.52679166666667,424.453125,533.9799166666667
141,2014-09-02,109.26112499999999,509.171875,618.433
141,2014-09-03,109.837125,473.453125,583.29025
141,2014-09-04,109.83029166666667,457.53125,567.3615416666667
141,2014-09-05,109.82483333333333,491.3125,601.1373333333333
141,2014-09-06,109.4895,467.6979166666667,577.1874166666666
141,2014-09-07,109.44191666666667,396.1875,505.62941666666666
141,2014-09-08,109.996625,370.5833333333333,480.5799583333333
141,2014-09-09,107.55825,361.390625,468.948875
141,2014-09-10,110.04683333333332,355.7083333333333,465.75516666666664
141,2014-09-11,109.93258333333334,403.2916666666667,513.22425
141,2014-09-12,110.57420833333333,332.0729166666667,442.647125
141,2014-09-13,110.18866666666666,298.53125,408.7199166666667
141,2014-09-14,110.13783333333333,267.0260416666667,377.163875
141,2014-09-15,110.40499999999999,275.6614583333333,386.0664583333333
141,2014-09-16,110.42191666666668,279.75,390.1719166666667
141,2014-09-17,110.64679166666667,277.8072916666667,388.45408333333336
141,2014-09-18,110.51416666666667,284.6354166666667,395.14958333333334
141,2014-09-19,48.321333333333335,306.3020833333333,354.6234166666666
141,2014-09-20,32.169666666666664,338.9635416666667,371.13320833333336
141,2014-09-21,47.082,389.2239583333333,436.3059583333333
141,2014-09-22,47.32129166666667,355.6510416666667,402.9723333333334
141,2014-09-23,24.80575,334.640625,359.446375
141,2014-09-24,38.27725,345.9322916666667,384.20954166666667
141,2014-09-25,47.28116666666667,340.765625,388.04679166666665
141,2014-09-26,25.180458333333334,340.671875,365.8523333333333
141,2014-09-27,24.592458333333337,295.7604166666667,320.35287500000004
141,2014-09-28,59.32083333333333,345.609375,404.9302083333333
141,2014-09-29,59.02375,366.0625,425.08625